sat.trackr.live / text

‹ back to catalog

STARLINK-4191

NORAD 52860 · 2022-062AG

PAYLOAD ACTIVE UNKNOWN

§ Identity

Operator
Country
US
Launch date
2022-06-17
Launch site
AFETR
Launch vehicle
Mass (kg)
RCS (m²)

Purposes: comms

External: N2YO · Heavens-Above · Gunter

§ Orbital elements

Epoch: 2026-05-25T03:01:11.280864Z

Period
95.44 min
Inclination
53.2130°
Eccentricity
0.0001854
Mean motion
15.08847402 rev/d
Perigee alt
538.4 km
Apogee alt
541.0 km
Semi-major
6,917.9 km
B*
-1.0049e-4
RAAN
40.9845°
Arg perigee
86.9591°
Mean anomaly
273.1613°
Rev number
21,746

§ Raw data

STARLINK-41911 52860U 22062AG  26145.12582501 -.00001888  00000+0 -10049-3 0  99982 52860  53.2130  40.9845 0001854  86.9591 273.1613 15.08847402217465

JSON: /api/v1/satellites/52860 · /tle

For live sub-satellite position, see the globe view (requires WebGL).

§ Visibility from observer

Set your observer location to see the next 7 days of passes ≥ 10°. The values pass through the URL so the page stays shareable.

No JS? Fill the form by hand. The geolocation button needs JavaScript.